COSMOS 2491 DEB, 45130

Orbit data source: Space-Track

COSMOS 2491 DEB, 45130 is space debris in LEO originally from a launch on Wed, 25 Dec 2013 UTC launched from the Plesetsk Missile And Space Complex (PKMTR). Debris objects in space refer to the collection of defunct objects orbiting the Earth. Examples of debris include non-operational satellites, rocket bodies, and fragments generated from explosions, collisions, or faulty payload assembly.

Loading next visibility...
Identifier
45130, 2013-076AC
Orbit
LEO
Country
Flag of CISCIS
Related business
Manufacturer
TsNIIKhM
Mission
Spacecraft
Bus & Motor
Unknown
Mass
Unknown
Launch date (UTC)
2013-12-25 (12 years ago)
Launch vehicle
Unknown
Launch site
Plesetsk Missile And Space Complex (PKMTR)
Object type
Payload
Rocket body
Debris
Shape & HBR
Unknown shape, 0.1 m
Radar Cross Section
Small (<0.1 m²)

Expand to show TLE details & history
Last TLE update: 1 week ago

TLE from 1 week ago
0 COSMOS 2491 DEB
1 45130U 13076AC  26122.28164070  .00002946  00000-0  14039-1 0  9990
2 45130  82.4564 132.6631 0123157 209.2092 150.2080 12.71639140288850
Epoch: 2026-05-02T06:45Z
TLE epoch observation values (Epoch: 2026-05-02T06:45:33.756Z)
Latitude
-0°
Longitude
171.07066°
Altitude
1,461.179 km
Speed
7.094 km/s
True Right ascension
08h 50m 39s
True Declination
0° 00' 00"
Sunlit
Object was in daylight at epoch
Visualization orbit readout
Latitude
Unknown
Longitude
Unknown
Altitude
Unknown
Speed
Unknown
Apparent Right ascension
Unknown
Apparent Declination
Unknown
Sunlit
N/A
Visualization observer readout
Local Sidereal Time
07:28:53
Azimuth
Unknown
Elevation
Unknown
Doppler factor
Unknown
Orbital elements
Apogee altitude
1,468.037 km
Perigee altitude
1,277.126 km
Semi-major axis
7,750.719 km
Eccentricity
0.01232
Inclination
82.4564°
RAAN
132.6631°
Arg. of periapsis
209.2092°
True anomaly
150.89993°
Mean anomaly
150.208°
Eccentric anomaly
150.55488°
Mean motion
3.18075 °/min
Orbital period
113.18 mins
BSTAR
0.014039
Loading maneuver chart data...
Computing Atmospheric mass density...
Loading historical data...
Loading historical data...
Loading historical data...
Loading historical data...
Loading historical data...
Loading historical data...
Loading historical data...

Documentation

Showing up to 5 results
|